Location: Artiguedieu
(43.5000°N, 0.5454°E)
Time: 23:47:50
(UTC+00:00)

Transit 2A Rocket - Pass Details

Date: 01 August 2021
Orbit: 586 x 916 km, 66.7° (Epoch: 19 September)

Event Time Altitude Azimuth Distance (km) Brightness Sun altitude
Rises 00:55:19 0° 305° (NW) 3,363 8.6 -27.4°
Enters shadow 00:59:10 - 277° (W) 2,612 7.7 -27.2°
Reaches altitude 10° 01:00:52 10° 261° (W) 2,514 - -27.1°
Maximum altitude 01:01:09 10° 258° (WSW) 2,515 - -27.1°
Drops below altitude 10° 01:01:27 10° 255° (WSW) 2,521 - -27.1°
Sets 01:07:13 0° 212° (SSW) 3,515 - -26.8°
